Location: ???????
(55.4362°N, 38.1183°E)
Time: 03:51:44
(UTC+00:00)

N. Korean satellite - Pass Details

Date: 30 September 2021
Orbit: 450 x 495 km, 97.3° (Epoch: 15 October)

Event Time Altitude Azimuth Distance (km) Brightness Sun altitude
Rises 02:41:12 0° 17° (NNE) 2,538 10.5 -7.5°
Reaches altitude 10° 02:43:17 10° 22° (NNE) 1,663 9.7 -7.2°
Maximum altitude 02:46:48 54° 101° (E) 595 7.5 -6.7°
Drops below altitude 10° 02:50:20 10° 179° (S) 1,673 9.3 -6.2°
Sets 02:52:26 0° 184° (S) 2,556 10.1 -5.9°
